Pinedale, WY

5:20 PM MDT on May 29, 2017 (GMT -0600)
Wenz

Weather History for KPNA - January, 2013

Change the Weather History Date:

Monday, January 7, 2013

  Actual Average (KBPI) Record (KBPI)
Temperature  
Mean Temperature 5 °F -  
Max Temperature 23 °F 24 °F 42 °F (2009)
Min Temperature -13 °F 1 °F -34 °F (2017)
Degree Days  
Heating Degree Days 60    
Moisture  
Dew Point 0 °F    
Average Humidity 80    
Maximum Humidity 100    
Minimum Humidity 58    
Precipitation  
Precipitation 0.00 in - - ()
Sea Level Pressure  
Sea Level Pressure 30.01 in    
Wind  
Wind Speed 5 mph (WNW)    
Max Wind Speed 15 mph    
Max Gust Speed 20 mph    
Visibility 10 miles    
Events      
Averages and records for this station are not official NWS values.
T = Trace of Precipitation, MM = Missing Value Source: NWS Daily Summary

Daily Weather History Graph

Daily Weather History Graph

Search for Another Location

Airport or City:

Trip Planner

Search our weather history database for the weather conditions in past years. The results will help you decide how hot, cold, wet, or windy it might be!

Date:

Astronomy

Jan. 07, 2013 Rise Set
Actual Time 7:49 AM MST 5:02 PM MST
Civil Twilight 7:17 AM MST 5:33 PM MST
Nautical Twilight 6:42 AM MST 6:09 PM MST
Astronomical Twilight 6:08 AM MST 6:43 PM MST
Moon 3:15 AM MST (1/7) 1:16 PM MST (1/7)
Length of Visible Light 10h 16m
Length of Day
9h 12m
Waning Crescent, 22% of the Moon is Illuminated
Jan 7
Waning Crescent
Jan 11
New
Jan 18
First Quarter
Jan 26
Full
Feb 3
Last Quarter

Hourly Weather History & Observations

Time (MST) Temp. Windchill Dew Point Humidity Pressure Visibility Wind Dir Wind Speed Gust Speed Precip Events Conditions
12:15 AM -4.0 °F -16.3 °F -7.6 °F 85% 30.05 in 10.0 mi West 5.8 mph - N/A   Clear
12:35 AM -4.0 °F -12.4 °F -7.6 °F 85% 30.05 in 10.0 mi West 3.5 mph - N/A   Clear
12:55 AM -5.8 °F -21.2 °F -9.4 °F 84% 30.05 in 10.0 mi West 8.1 mph - N/A   Clear
1:15 AM -5.8 °F -18.4 °F -9.4 °F 84% 30.05 in 10.0 mi WNW 5.8 mph - N/A   Clear
1:35 AM -5.8 °F -22.4 °F -7.6 °F 92% 30.05 in 10.0 mi West 9.2 mph - N/A   Clear
1:55 AM -4.0 °F -17.8 °F -7.6 °F 85% 30.05 in 10.0 mi WNW 6.9 mph - N/A   Clear
2:15 AM -5.8 °F -22.4 °F -9.4 °F 84% 30.05 in 10.0 mi WNW 9.2 mph - N/A   Clear
2:35 AM -7.6 °F -22.1 °F -13.0 °F 77% 30.05 in 10.0 mi WNW 6.9 mph - N/A   Clear
2:55 AM -5.8 °F -22.4 °F -7.6 °F 92% 30.05 in 10.0 mi NW 9.2 mph - N/A   Clear
3:15 AM -5.8 °F -14.5 °F -9.4 °F 84% 30.05 in 10.0 mi West 3.5 mph - N/A   Clear
3:35 AM -2.2 °F - -5.8 °F 85% 30.05 in 10.0 mi Calm Calm - N/A   Clear
3:55 AM -9.4 °F - -13.0 °F 84% 30.05 in 10.0 mi Calm Calm - N/A   Clear
4:15 AM -9.4 °F -18.6 °F -14.8 °F 77% 30.05 in 10.0 mi East 3.5 mph - N/A   Clear
4:35 AM -9.4 °F -22.7 °F -14.8 °F 77% 30.05 in 10.0 mi East 5.8 mph - N/A   Clear
4:55 AM -9.4 °F - -14.8 °F 77% 30.05 in 10.0 mi Calm Calm - N/A   Clear
5:15 AM -13.0 °F -25.1 °F -16.6 °F 84% 30.05 in 10.0 mi West 4.6 mph - N/A   Clear
5:35 AM -11.2 °F -27.8 °F -14.8 °F 84% 30.05 in 10.0 mi NNW 8.1 mph - N/A   Clear
5:55 AM -11.2 °F -24.8 °F -14.8 °F 84% 30.05 in 10.0 mi West 5.8 mph - N/A   Clear
6:15 AM -9.4 °F -20.9 °F -14.8 °F 77% 30.05 in 10.0 mi WNW 4.6 mph - N/A   Clear
6:35 AM -11.2 °F -24.8 °F -14.8 °F 84% 30.05 in 10.0 mi NNW 5.8 mph - N/A   Clear
6:55 AM -9.4 °F -24.3 °F -14.8 °F 77% 30.05 in 10.0 mi WNW 6.9 mph - N/A   Clear
7:35 AM -9.4 °F -22.7 °F -14.8 °F 77% 30.06 in 10.0 mi West 5.8 mph - N/A   Clear
7:55 AM -7.6 °F -22.1 °F -13.0 °F 77% 30.06 in 10.0 mi NW 6.9 mph - N/A   Scattered Clouds
8:15 AM -9.4 °F -22.7 °F -13.0 °F 84% 30.07 in 10.0 mi West 5.8 mph - N/A   Scattered Clouds
8:35 AM -7.6 °F -23.4 °F -13.0 °F 77% 30.07 in 10.0 mi WNW 8.1 mph - N/A   Clear
8:55 AM -5.8 °F -16.7 °F -11.2 °F 77% 30.07 in 10.0 mi WNW 4.6 mph - N/A   Clear
9:15 AM -4.0 °F -19.0 °F -7.6 °F 85% 30.06 in 10.0 mi NW 8.1 mph - N/A   Clear
9:35 AM -0.4 °F - -5.8 °F 78% 30.07 in 10.0 mi Calm Calm - N/A   Clear
9:55 AM 1.4 °F - -4.0 °F 78% 30.07 in 10.0 mi Calm Calm - N/A   Clear
10:35 AM 8.6 °F - 3.2 °F 79% 30.07 in 10.0 mi Calm Calm - N/A   Clear
10:55 AM 8.6 °F - 1.4 °F 73% 30.06 in 10.0 mi Calm Calm - N/A   Clear
11:35 AM 10.4 °F - 3.2 °F 73% 30.04 in 10.0 mi Calm Calm - N/A   Clear
12:15 PM 12.2 °F - 5.0 °F 73% 30.03 in 10.0 mi Calm Calm - N/A   Clear
12:35 PM 15.8 °F 8.6 °F 8.6 °F 73% 30.03 in 10.0 mi WNW 4.6 mph - N/A   Clear
12:55 PM 17.6 °F 10.7 °F 8.6 °F 68% 30.02 in 10.0 mi NW 4.6 mph - N/A   Clear
1:15 PM 17.6 °F 10.7 °F 8.6 °F 68% 30.01 in 10.0 mi NW 4.6 mph - N/A   Clear
1:35 PM 21.2 °F - 8.6 °F 58% 30.00 in 10.0 mi Calm Calm - N/A   Clear
1:55 PM 21.2 °F - 8.6 °F 58% 30.00 in 10.0 mi Calm Calm - N/A   Clear
2:15 PM 23.0 °F - 10.4 °F 59% 29.99 in 10.0 mi Calm Calm - N/A   Clear
2:35 PM 19.4 °F - 8.6 °F 63% 29.98 in 10.0 mi Calm Calm - N/A   Scattered Clouds
2:55 PM 19.4 °F 14.3 °F 10.4 °F 68% 29.98 in 10.0 mi East 3.5 mph - N/A   Scattered Clouds
3:15 PM 21.2 °F - 10.4 °F 63% 29.98 in 10.0 mi Calm Calm - N/A   Scattered Clouds
3:35 PM 19.4 °F 14.3 °F 10.4 °F 68% 29.98 in 10.0 mi East 3.5 mph - N/A   Clear
4:15 PM 21.2 °F - 10.4 °F 63% 29.97 in 10.0 mi Calm Calm - N/A   Clear
4:35 PM 17.6 °F 12.3 °F 8.6 °F 68% 29.97 in 10.0 mi East 3.5 mph - N/A   Clear
4:55 PM 12.2 °F 1.7 °F 5.0 °F 73% 29.96 in 10.0 mi East 6.9 mph - N/A   Clear
5:15 PM 12.2 °F - 5.0 °F 73% 29.97 in 10.0 mi Calm Calm - N/A   Scattered Clouds
5:35 PM 10.4 °F - 5.0 °F 79% 29.95 in 10.0 mi Calm Calm - N/A   Overcast
5:55 PM 10.4 °F - 3.2 °F 73% 29.95 in 10.0 mi Calm Calm - N/A   Overcast
6:15 PM 10.4 °F - 5.0 °F 79% 29.95 in 10.0 mi Calm Calm - N/A   Mostly Cloudy
6:35 PM 8.6 °F 0.1 °F 3.2 °F 79% 29.95 in 10.0 mi WNW 4.6 mph - N/A   Scattered Clouds
6:55 PM 6.8 °F -2.0 °F 3.2 °F 85% 29.95 in 10.0 mi WNW 4.6 mph - N/A   Scattered Clouds
7:15 PM 10.4 °F -1.5 °F 10.4 °F 100% 29.95 in 10.0 mi WNW 8.1 mph - N/A   Clear
7:35 PM 10.4 °F 0.8 °F 10.4 °F 100% 29.94 in 10.0 mi NW 5.8 mph - N/A   Clear
7:55 PM 15.8 °F 2.7 °F 14.0 °F 93% 29.93 in 10.0 mi NW 11.5 mph - N/A   Clear
8:15 PM 12.2 °F - 10.4 °F 92% 29.93 in 10.0 mi Calm Calm - N/A   Clear
8:35 PM 12.2 °F - 12.2 °F 100% 29.94 in 10.0 mi Calm Calm - N/A   Clear
8:55 PM 12.2 °F -1.0 °F 10.4 °F 92% 29.94 in 10.0 mi NW 10.4 mph - N/A   Clear
9:15 PM 14.0 °F -1.4 °F 12.2 °F 93% 29.94 in 10.0 mi NW 15.0 mph - N/A   Scattered Clouds
9:35 PM 17.6 °F 3.2 °F 15.8 °F 93% 29.93 in 10.0 mi NW 15.0 mph 19.6 mph N/A   Scattered Clouds
9:55 PM 21.2 °F 7.8 °F 17.6 °F 86% 29.93 in 10.0 mi WNW 15.0 mph - N/A   Clear
10:15 PM 19.4 °F 8.6 °F 15.8 °F 86% 29.92 in 10.0 mi West 9.2 mph - N/A   Clear
10:35 PM 19.4 °F 9.5 °F 14.0 °F 80% 29.93 in 10.0 mi NW 8.1 mph - N/A   Clear
10:55 PM 17.6 °F 6.4 °F 14.0 °F 86% 29.93 in 10.0 mi West 9.2 mph - N/A   Clear
11:15 PM 17.6 °F 6.4 °F 14.0 °F 86% 29.95 in 10.0 mi NW 9.2 mph - N/A   Clear
11:35 PM 17.6 °F 8.2 °F 14.0 °F 86% 29.93 in 10.0 mi WNW 6.9 mph - N/A   Clear
11:55 PM 17.6 °F 9.3 °F 14.0 °F 86% 29.93 in 10.0 mi NW 5.8 mph - N/A   Clear